{"data":{"norad_id":63266,"intl_designator":"2025-053B","name":"STARLINK-11659 [DTC]","alt_names":[],"object_type":"PAYLOAD","status":"ACTIVE","operator":null,"country":"US","launch_date":"2025-03-15","launch_site_code":"AFETR","launch_vehicle":null,"mission":null,"orbit_class":"UNKNOWN","rcs_meters":null,"size_class":null,"mass_kg":null,"dimensions":null,"purposes":["comms"],"wikipedia_slug":null,"has_3d_model":false,"image_url":null,"decayed_at":null,"tle_current":{"epoch":"2026-09-21T17:38:37.563072Z","epoch_age_seconds":55542,"freshness":"FRESH","line1":"1 63266U 25053B   26264.73515698  .00200250  00000+0  15236-2 0  9999","line2":"2 63266  42.9992  10.4168 0001844 275.3997  84.6660 15.70889438 88503","mean_motion":15.70889438,"eccentricity":0.0001844,"inclination_deg":42.9992,"raan_deg":10.4168,"arg_perigee_deg":275.3997,"mean_anomaly_deg":84.666,"bstar":0.0015236,"rev_number":8850,"period_min":91.667813479818,"perigee_km":355.11192212138,"apogee_km":357.59560231448,"semimajor_km":6734.4907622179,"source":"CELESTRAK","updated_at":"2026-09-22T09:00:49.799216Z"}}}